Regional Weather Roundup
Issued by NWS State College, PA

Home | Current Version | Previous Version | Graphics & Text | Print | Product List | Glossary On
Versions: 1 2 3 4 5 6 7 8 9 10 11 12 13 14 15 16 17 18 19 20 21 22 23 24 25 26 27 28 29 30 31 32 33 34 35 36 37 38 39 40 41 42 43 44 45 46 47 48 49 50
000
ASUS41 KCTP 152210
RWRCTP

REGIONAL WEATHER ROUNDUP
NATIONAL WEATHER SERVICE STATE COLLEGE PA
600 PM EDT MON SEP 15 2014

Note: "fair" indicates few or no clouds below 12,000 feet with no
significant weather and/or obstructions to visibility.

* = STATION THAT DOES NOT REPORT PRECIPITATION /E.G. RAIN...SNOW...ETC/
    THUNDER OR FOG.

PAZ002>004-007>009-013>016-020>023-029>032-152300-
WESTERN PENNSYLVANIA

CITY           SKY/WX    TMP DP  RH WIND       PRES   REMARKS
ERIE           CLOUDY    63  50  62 S6        30.09F
MEADVILLE      CLOUDY    60  49  66 S3        30.11F
FRANKLIN*      CLOUDY    61  48  63 W5        30.13S
NEW CASTLE     FAIR      65  51  60 CALM      30.11F
BEAVER COUNTY  SUNNY     64  50  59 SW5       30.11S
BUTLER*        CLOUDY    64  48  55 SW7       30.13S
PITTSBURGH INT CLOUDY    67  49  52 SW6       30.10S
PITTSBURGH     CLOUDY    66  46  48 SW7       30.10R
INDIANA*       SUNNY     66  48  52 W6        30.13R
LATROBE        PTSUNNY   66  52  59 W9        30.10F
WASHINGTON CO* CLOUDY    66  50  55 SW3       30.11S
$$

PAZ004>006-010>012-017>019-024>028-033>037-041-042-045-046-049>053-152300-
CENTRAL PENNSYLVANIA

CITY           SKY/WX    TMP DP  RH WIND       PRES   REMARKS
BRADFORD       CLOUDY    60  46  59 W6        30.12R
DUBOIS         MOSUNNY   61  49  64 W5        30.10R
CLEARFIELD     MOSUNNY   65  50  58 CALM      30.09F
JOHNSTOWN      MOSUNNY   66  41  40 S9        30.10F
ALTOONA        MOSUNNY   66  48  52 S7        30.11S
STATE COLLEGE  MOSUNNY   64  50  59 SW6       30.10F
WILLIAMSPORT   SUNNY     67  47  48 VRB7      30.10R
SELINSGROVE    MOSUNNY   67  49  52 VRB5      30.11F
FT INDIANTOWN  MOSUNNY   69  49  48 VRB3      30.12F
CAPITAL CITY   MOSUNNY   70  48  45 CALM      30.11F
HARRISBURG     PTSUNNY   69  54  58 CALM      30.10F
YORK           MOSUNNY   68  50  52 SW3       30.12F
$$

PAZ038>040-043-044-047-048-054-055-060>062-067>071-152300-
EASTERN PENNSYLVANIA

CITY           SKY/WX    TMP DP  RH WIND       PRES   REMARKS
SCRANTON       SUNNY     66  42  41 S6        30.10F
MOUNT POCONO   MOSUNNY   62  46  55 SW8       30.13F
ALLENTOWN      MOSUNNY   68  46  45 W7        30.12F
QUAKERTOWN*    PTCLDY    68  46  45 MISG      30.14S
READING        MOSUNNY   70  46  42 SW3       30.10F
LANCASTER      SUNNY     69  48  47 SW5       30.11F
COATESVILLE    PTCLDY    64  50  59 CALM      30.14F
POTTSTOWN      MOSUNNY   68  48  48 SW3       30.14S
BLUE BELL      SUNNY     70  48  46 W3        30.12F
DOYLESTOWN     SUNNY     68  46  45 SW6       30.12S
WILLOW GROVE   NOT AVBL
NORTH PHILA    MOSUNNY   71  42  35 SW5       30.13S
PHILADELPHIA   MOSUNNY   71  47  42 SW8       30.13S
$$



USA.gov is the U.S. government's official web portal to all federal, state and local government web resources and services.